Year,Month,Day,Hour,Minute,Value (Times are PST for insolation in W/m^2)
2011,08,05,00,00,0.00
2011,08,05,00,01,0.00
2011,08,05,00,02,0.00
2011,08,05,00,03,0.00
2011,08,05,00,04,0.00
2011,08,05,00,05,0.00
2011,08,05,00,06,0.00
2011,08,05,00,07,0.00
2011,08,05,00,08,0.00
2011,08,05,00,09,0.00
2011,08,05,00,10,0.00
2011,08,05,00,11,0.00
2011,08,05,00,12,0.00
2011,08,05,00,13,0.00
2011,08,05,00,14,0.00
2011,08,05,00,15,0.00
2011,08,05,00,16,0.00
2011,08,05,00,17,0.00
2011,08,05,00,18,0.00
2011,08,05,00,19,0.00
2011,08,05,00,20,0.00
2011,08,05,00,21,0.00
2011,08,05,00,22,0.00
2011,08,05,00,23,0.00
2011,08,05,00,24,0.00
2011,08,05,00,25,0.00
2011,08,05,00,26,0.00
2011,08,05,00,27,0.00
2011,08,05,00,28,0.00
2011,08,05,00,29,0.00
2011,08,05,00,30,0.00
2011,08,05,00,31,0.00
2011,08,05,00,32,0.00
2011,08,05,00,33,0.00
2011,08,05,00,34,0.00
2011,08,05,00,35,0.00
2011,08,05,00,36,0.00
2011,08,05,00,37,0.00
2011,08,05,00,38,0.00
2011,08,05,00,39,0.00
2011,08,05,00,40,0.00
2011,08,05,00,41,0.00
2011,08,05,00,42,0.00
2011,08,05,00,43,0.00
2011,08,05,00,44,0.00
2011,08,05,00,45,0.00
2011,08,05,00,46,0.00
2011,08,05,00,47,0.00
2011,08,05,00,48,0.00
2011,08,05,00,49,0.00
2011,08,05,00,50,0.00
2011,08,05,00,51,0.00
2011,08,05,00,52,0.00
2011,08,05,00,53,0.00
2011,08,05,00,54,0.00
2011,08,05,00,55,0.00
2011,08,05,00,56,0.00
2011,08,05,00,57,0.00
2011,08,05,00,58,0.00
2011,08,05,00,59,0.00
2011,08,05,01,00,0.00
2011,08,05,01,01,0.00
2011,08,05,01,02,0.00
2011,08,05,01,03,0.00
2011,08,05,01,04,0.00
2011,08,05,01,05,0.00
2011,08,05,01,06,0.00
2011,08,05,01,07,0.00
2011,08,05,01,08,0.00
2011,08,05,01,09,0.00
2011,08,05,01,10,0.00
2011,08,05,01,11,0.00
2011,08,05,01,12,0.00
2011,08,05,01,13,0.00
2011,08,05,01,14,0.00
2011,08,05,01,15,0.00
2011,08,05,01,16,0.00
2011,08,05,01,17,0.00
2011,08,05,01,18,0.00
2011,08,05,01,19,0.00
2011,08,05,01,20,0.00
2011,08,05,01,21,0.00
2011,08,05,01,22,0.00
2011,08,05,01,23,0.00
2011,08,05,01,24,0.00
2011,08,05,01,25,0.00
2011,08,05,01,26,0.00
2011,08,05,01,27,0.00
2011,08,05,01,28,0.00
2011,08,05,01,29,0.00
2011,08,05,01,30,0.00
2011,08,05,01,31,0.00
2011,08,05,01,32,0.00
2011,08,05,01,33,0.00
2011,08,05,01,34,0.00
2011,08,05,01,35,0.00
2011,08,05,01,36,0.00
2011,08,05,01,37,0.00
2011,08,05,01,38,0.00
2011,08,05,01,39,0.00
2011,08,05,01,40,0.00
2011,08,05,01,41,0.00
2011,08,05,01,42,0.00
2011,08,05,01,43,0.00
2011,08,05,01,44,0.00
2011,08,05,01,45,0.00
2011,08,05,01,46,0.00
2011,08,05,01,47,0.00
2011,08,05,01,48,0.00
2011,08,05,01,49,0.00
2011,08,05,01,50,0.00
2011,08,05,01,51,0.00
2011,08,05,01,52,0.00
2011,08,05,01,53,0.00
2011,08,05,01,54,0.00
2011,08,05,01,55,0.00
2011,08,05,01,56,0.00
2011,08,05,01,57,0.00
2011,08,05,01,58,0.00
2011,08,05,01,59,0.00
2011,08,05,02,00,0.00
2011,08,05,02,01,0.00
2011,08,05,02,02,0.00
2011,08,05,02,03,0.00
2011,08,05,02,04,0.00
2011,08,05,02,05,0.00
2011,08,05,02,06,0.00
2011,08,05,02,07,0.00
2011,08,05,02,08,0.00
2011,08,05,02,09,0.00
2011,08,05,02,10,0.00
2011,08,05,02,11,0.00
2011,08,05,02,12,0.00
2011,08,05,02,13,0.00
2011,08,05,02,14,0.00
2011,08,05,02,15,0.00
2011,08,05,02,16,0.00
2011,08,05,02,17,0.00
2011,08,05,02,18,0.00
2011,08,05,02,19,0.00
2011,08,05,02,20,0.00
2011,08,05,02,21,0.00
2011,08,05,02,22,0.00
2011,08,05,02,23,0.00
2011,08,05,02,24,0.00
2011,08,05,02,25,0.00
2011,08,05,02,26,0.00
2011,08,05,02,27,0.00
2011,08,05,02,28,0.00
2011,08,05,02,29,0.00
2011,08,05,02,30,0.00
2011,08,05,02,31,0.00
2011,08,05,02,32,0.00
2011,08,05,02,33,0.00
2011,08,05,02,34,0.00
2011,08,05,02,35,0.00
2011,08,05,02,36,0.00
2011,08,05,02,37,0.00
2011,08,05,02,38,0.00
2011,08,05,02,39,0.00
2011,08,05,02,40,0.00
2011,08,05,02,41,0.00
2011,08,05,02,42,0.00
2011,08,05,02,43,0.00
2011,08,05,02,44,0.00
2011,08,05,02,45,0.00
2011,08,05,02,46,0.00
2011,08,05,02,47,0.00
2011,08,05,02,48,0.00
2011,08,05,02,49,0.00
2011,08,05,02,50,0.00
2011,08,05,02,51,0.00
2011,08,05,02,52,0.00
2011,08,05,02,53,0.00
2011,08,05,02,54,0.00
2011,08,05,02,55,0.00
2011,08,05,02,56,0.00
2011,08,05,02,57,0.00
2011,08,05,02,58,0.00
2011,08,05,02,59,0.00
2011,08,05,03,00,0.00
2011,08,05,03,01,0.00
2011,08,05,03,02,0.00
2011,08,05,03,03,0.00
2011,08,05,03,04,0.00
2011,08,05,03,05,0.00
2011,08,05,03,06,0.00
2011,08,05,03,07,0.00
2011,08,05,03,08,0.00
2011,08,05,03,09,0.00
2011,08,05,03,10,0.00
2011,08,05,03,11,0.00
2011,08,05,03,12,0.00
2011,08,05,03,13,0.00
2011,08,05,03,14,0.00
2011,08,05,03,15,0.00
2011,08,05,03,16,0.00
2011,08,05,03,17,0.00
2011,08,05,03,18,0.00
2011,08,05,03,19,0.00
2011,08,05,03,20,0.00
2011,08,05,03,21,0.00
2011,08,05,03,22,0.00
2011,08,05,03,23,0.00
2011,08,05,03,24,0.00
2011,08,05,03,25,0.00
2011,08,05,03,26,0.00
2011,08,05,03,27,0.00
2011,08,05,03,28,0.00
2011,08,05,03,29,0.00
2011,08,05,03,30,0.00
2011,08,05,03,31,0.00
2011,08,05,03,32,0.00
2011,08,05,03,33,0.00
2011,08,05,03,34,0.00
2011,08,05,03,35,0.00
2011,08,05,03,36,0.00
2011,08,05,03,37,0.00
2011,08,05,03,38,0.00
2011,08,05,03,39,0.00
2011,08,05,03,40,0.00
2011,08,05,03,41,0.00
2011,08,05,03,42,0.00
2011,08,05,03,43,0.00
2011,08,05,03,44,0.00
2011,08,05,03,45,0.00
2011,08,05,03,46,0.00
2011,08,05,03,47,0.00
2011,08,05,03,48,0.00
2011,08,05,03,49,0.00
2011,08,05,03,50,0.00
2011,08,05,03,51,0.00
2011,08,05,03,52,0.00
2011,08,05,03,53,0.00
2011,08,05,03,54,0.00
2011,08,05,03,55,0.00
2011,08,05,03,56,0.00
2011,08,05,03,57,0.00
2011,08,05,03,58,0.00
2011,08,05,03,59,0.00
2011,08,05,04,00,0.00
2011,08,05,04,01,0.00
2011,08,05,04,02,0.00
2011,08,05,04,03,0.00
2011,08,05,04,04,0.00
2011,08,05,04,05,0.00
2011,08,05,04,06,0.00
2011,08,05,04,07,0.00
2011,08,05,04,08,0.00
2011,08,05,04,09,0.00
2011,08,05,04,10,0.00
2011,08,05,04,11,0.00
2011,08,05,04,12,0.00
2011,08,05,04,13,0.00
2011,08,05,04,14,0.00
2011,08,05,04,15,0.00
2011,08,05,04,16,0.00
2011,08,05,04,17,0.00
2011,08,05,04,18,0.00
2011,08,05,04,19,0.00
2011,08,05,04,20,0.00
2011,08,05,04,21,0.00
2011,08,05,04,22,0.00
2011,08,05,04,23,0.00
2011,08,05,04,24,0.00
2011,08,05,04,25,0.00
2011,08,05,04,26,0.00
2011,08,05,04,27,0.00
2011,08,05,04,28,0.00
2011,08,05,04,29,0.00
2011,08,05,04,30,0.00
2011,08,05,04,31,0.00
2011,08,05,04,32,0.00
2011,08,05,04,33,0.00
2011,08,05,04,34,0.00
2011,08,05,04,35,0.00
2011,08,05,04,36,0.00
2011,08,05,04,37,0.00
2011,08,05,04,38,0.00
2011,08,05,04,39,0.00
2011,08,05,04,40,0.00
2011,08,05,04,41,0.00
2011,08,05,04,42,0.00
2011,08,05,04,43,0.00
2011,08,05,04,44,0.00
2011,08,05,04,45,0.00
2011,08,05,04,46,0.00
2011,08,05,04,47,0.00
2011,08,05,04,48,0.00
2011,08,05,04,49,0.00
2011,08,05,04,50,0.00
2011,08,05,04,51,0.00
2011,08,05,04,52,0.00
2011,08,05,04,53,0.00
2011,08,05,04,54,0.00
2011,08,05,04,55,0.00
2011,08,05,04,56,0.00
2011,08,05,04,57,0.00
2011,08,05,04,58,0.00
2011,08,05,04,59,0.00
2011,08,05,05,00,0.00
2011,08,05,05,01,0.00
2011,08,05,05,02,0.00
2011,08,05,05,03,0.00
2011,08,05,05,04,0.00
2011,08,05,05,05,0.00
2011,08,05,05,06,0.00
2011,08,05,05,07,0.00
2011,08,05,05,08,0.00
2011,08,05,05,09,0.00
2011,08,05,05,10,0.00
2011,08,05,05,11,0.00
2011,08,05,05,12,0.00
2011,08,05,05,13,0.00
2011,08,05,05,14,0.00
2011,08,05,05,15,0.00
2011,08,05,05,16,0.00
2011,08,05,05,17,0.00
2011,08,05,05,18,0.00
2011,08,05,05,19,0.00
2011,08,05,05,20,0.00
2011,08,05,05,21,0.00
2011,08,05,05,22,0.00
2011,08,05,05,23,0.00
2011,08,05,05,24,0.00
2011,08,05,05,25,0.00
2011,08,05,05,26,0.00
2011,08,05,05,27,0.00
2011,08,05,05,28,0.00
2011,08,05,05,29,0.00
2011,08,05,05,30,0.00
2011,08,05,05,31,0.00
2011,08,05,05,32,0.00
2011,08,05,05,33,0.00
2011,08,05,05,34,0.00
2011,08,05,05,35,0.00
2011,08,05,05,36,0.00
2011,08,05,05,37,0.00
2011,08,05,05,38,0.00
2011,08,05,05,39,0.00
2011,08,05,05,40,0.00
2011,08,05,05,41,0.00
2011,08,05,05,42,0.00
2011,08,05,05,43,0.00
2011,08,05,05,44,0.00
2011,08,05,05,45,0.00
2011,08,05,05,46,0.00
2011,08,05,05,47,0.00
2011,08,05,05,48,0.00
2011,08,05,05,49,0.00
2011,08,05,05,50,0.00
2011,08,05,05,51,0.00
2011,08,05,05,52,0.00
2011,08,05,05,53,0.00
2011,08,05,05,54,0.00
2011,08,05,05,55,0.00
2011,08,05,05,56,0.00
2011,08,05,05,57,0.00
2011,08,05,05,58,0.00
2011,08,05,05,59,0.00
2011,08,05,06,00,0.00
2011,08,05,06,01,0.00
2011,08,05,06,02,0.00
2011,08,05,06,03,0.00
2011,08,05,06,04,0.00
2011,08,05,06,05,0.00
2011,08,05,06,06,0.00
2011,08,05,06,07,0.00
2011,08,05,06,08,0.00
2011,08,05,06,09,0.00
2011,08,05,06,10,3.00
2011,08,05,06,11,5.00
2011,08,05,06,12,5.00
2011,08,05,06,13,5.00
2011,08,05,06,14,5.00
2011,08,05,06,15,5.00
2011,08,05,06,16,5.00
2011,08,05,06,17,5.00
2011,08,05,06,18,5.00
2011,08,05,06,19,5.00
2011,08,05,06,20,5.00
2011,08,05,06,21,5.00
2011,08,05,06,22,5.90
2011,08,05,06,23,7.00
2011,08,05,06,24,7.00
2011,08,05,06,25,7.00
2011,08,05,06,26,7.00
2011,08,05,06,27,8.40
2011,08,05,06,28,9.00
2011,08,05,06,29,9.00
2011,08,05,06,30,9.00
2011,08,05,06,31,9.00
2011,08,05,06,32,9.00
2011,08,05,06,33,9.00
2011,08,05,06,34,9.40
2011,08,05,06,35,11.00
2011,08,05,06,36,11.00
2011,08,05,06,37,11.40
2011,08,05,06,38,12.00
2011,08,05,06,39,12.00
2011,08,05,06,40,12.00
2011,08,05,06,41,12.00
2011,08,05,06,42,12.00
2011,08,05,06,43,13.60
2011,08,05,06,44,14.00
2011,08,05,06,45,14.00
2011,08,05,06,46,14.00
2011,08,05,06,47,14.00
2011,08,05,06,48,14.00
2011,08,05,06,49,14.00
2011,08,05,06,50,14.60
2011,08,05,06,51,16.00
2011,08,05,06,52,16.80
2011,08,05,06,53,18.00
2011,08,05,06,54,18.00
2011,08,05,06,55,18.00
2011,08,05,06,56,18.00
2011,08,05,06,57,18.00
2011,08,05,06,58,18.00
2011,08,05,06,59,18.90
2011,08,05,07,00,19.00
2011,08,05,07,01,20.90
2011,08,05,07,02,21.00
2011,08,05,07,03,21.00
2011,08,05,07,04,21.00
2011,08,05,07,05,21.00
2011,08,05,07,06,21.70
2011,08,05,07,07,23.00
2011,08,05,07,08,23.00
2011,08,05,07,09,23.00
2011,08,05,07,10,23.00
2011,08,05,07,11,23.00
2011,08,05,07,12,23.00
2011,08,05,07,13,26.50
2011,08,05,07,14,28.00
2011,08,05,07,15,28.00
2011,08,05,07,16,27.90
2011,08,05,07,17,26.00
2011,08,05,07,18,26.60
2011,08,05,07,19,29.50
2011,08,05,07,20,28.00
2011,08,05,07,21,28.00
2011,08,05,07,22,28.00
2011,08,05,07,23,28.00
2011,08,05,07,24,29.00
2011,08,05,07,25,30.00
2011,08,05,07,26,31.30
2011,08,05,07,27,32.00
2011,08,05,07,28,32.80
2011,08,05,07,29,33.00
2011,08,05,07,30,33.00
2011,08,05,07,31,32.00
2011,08,05,07,32,32.00
2011,08,05,07,33,32.20
2011,08,05,07,34,33.00
2011,08,05,07,35,33.60
2011,08,05,07,36,35.00
2011,08,05,07,37,35.80
2011,08,05,07,38,38.00
2011,08,05,07,39,39.00
2011,08,05,07,40,39.60
2011,08,05,07,41,40.00
2011,08,05,07,42,40.00
2011,08,05,07,43,41.60
2011,08,05,07,44,43.70
2011,08,05,07,45,46.70
2011,08,05,07,46,49.10
2011,08,05,07,47,51.20
2011,08,05,07,48,53.40
2011,08,05,07,49,56.50
2011,08,05,07,50,58.50
2011,08,05,07,51,60.70
2011,08,05,07,52,62.40
2011,08,05,07,53,62.50
2011,08,05,07,54,62.00
2011,08,05,07,55,62.00
2011,08,05,07,56,64.00
2011,08,05,07,57,66.40
2011,08,05,07,58,70.80
2011,08,05,07,59,75.30
2011,08,05,08,00,80.50
2011,08,05,08,01,83.00
2011,08,05,08,02,84.00
2011,08,05,08,03,83.80
2011,08,05,08,04,83.00
2011,08,05,08,05,83.30
2011,08,05,08,06,84.70
2011,08,05,08,07,86.80
2011,08,05,08,08,88.00
2011,08,05,08,09,88.00
2011,08,05,08,10,86.80
2011,08,05,08,11,86.00
2011,08,05,08,12,86.00
2011,08,05,08,13,84.50
2011,08,05,08,14,85.70
2011,08,05,08,15,86.00
2011,08,05,08,16,86.00
2011,08,05,08,17,86.20
2011,08,05,08,18,88.40
2011,08,05,08,19,90.20
2011,08,05,08,20,92.10
2011,08,05,08,21,95.70
2011,08,05,08,22,97.40
2011,08,05,08,23,98.00
2011,08,05,08,24,97.40
2011,08,05,08,25,95.80
2011,08,05,08,26,92.30
2011,08,05,08,27,88.90
2011,08,05,08,28,88.00
2011,08,05,08,29,88.00
2011,08,05,08,30,88.00
2011,08,05,08,31,88.00
2011,08,05,08,32,88.00
2011,08,05,08,33,88.00
2011,08,05,08,34,88.00
2011,08,05,08,35,88.00
2011,08,05,08,36,88.70
2011,08,05,08,37,90.00
2011,08,05,08,38,90.00
2011,08,05,08,39,90.00
2011,08,05,08,40,90.00
2011,08,05,08,41,90.60
2011,08,05,08,42,92.50
2011,08,05,08,43,94.60
2011,08,05,08,44,96.70
2011,08,05,08,45,97.90
2011,08,05,08,46,100.00
2011,08,05,08,47,102.00
2011,08,05,08,48,102.00
2011,08,05,08,49,102.00
2011,08,05,08,50,101.40
2011,08,05,08,51,100.00
2011,08,05,08,52,99.20
2011,08,05,08,53,98.00
2011,08,05,08,54,98.00
2011,08,05,08,55,98.00
2011,08,05,08,56,98.00
2011,08,05,08,57,98.00
2011,08,05,08,58,98.00
2011,08,05,08,59,98.00
2011,08,05,09,00,97.10
2011,08,05,09,01,97.00
2011,08,05,09,02,97.00
2011,08,05,09,03,97.00
2011,08,05,09,04,97.00
2011,08,05,09,05,97.00
2011,08,05,09,06,97.00
2011,08,05,09,07,97.40
2011,08,05,09,08,98.00
2011,08,05,09,09,98.00
2011,08,05,09,10,98.00
2011,08,05,09,11,98.00
2011,08,05,09,12,99.40
2011,08,05,09,13,101.50
2011,08,05,09,14,103.70
2011,08,05,09,15,104.90
2011,08,05,09,16,107.00
2011,08,05,09,17,109.20
2011,08,05,09,18,111.40
2011,08,05,09,19,113.70
2011,08,05,09,20,116.60
2011,08,05,09,21,118.70
2011,08,05,09,22,120.40
2011,08,05,09,23,121.00
2011,08,05,09,24,121.00
2011,08,05,09,25,121.00
2011,08,05,09,26,121.00
2011,08,05,09,27,121.00
2011,08,05,09,28,121.00
2011,08,05,09,29,121.00
2011,08,05,09,30,121.00
2011,08,05,09,31,121.00
2011,08,05,09,32,121.00
2011,08,05,09,33,121.00
2011,08,05,09,34,121.50
2011,08,05,09,35,123.60
2011,08,05,09,36,126.10
2011,08,05,09,37,128.90
2011,08,05,09,38,131.00
2011,08,05,09,39,133.00
2011,08,05,09,40,134.60
2011,08,05,09,41,137.70
2011,08,05,09,42,140.50
2011,08,05,09,43,143.30
2011,08,05,09,44,147.40
2011,08,05,09,45,152.50
2011,08,05,09,46,156.00
2011,08,05,09,47,160.20
2011,08,05,09,48,162.20
2011,08,05,09,49,163.50
2011,08,05,09,50,166.10
2011,08,05,09,51,169.70
2011,08,05,09,52,172.20
2011,08,05,09,53,176.00
2011,08,05,09,54,179.60
2011,08,05,09,55,182.20
2011,08,05,09,56,184.30
2011,08,05,09,57,187.10
2011,08,05,09,58,191.10
2011,08,05,09,59,194.60
2011,08,05,10,00,199.50
2011,08,05,10,01,204.10
2011,08,05,10,02,206.10
2011,08,05,10,03,207.60
2011,08,05,10,04,211.70
2011,08,05,10,05,215.70
2011,08,05,10,06,221.00
2011,08,05,10,07,223.80
2011,08,05,10,08,226.00
2011,08,05,10,09,228.10
2011,08,05,10,10,227.80
2011,08,05,10,11,227.00
2011,08,05,10,12,227.00
2011,08,05,10,13,228.50
2011,08,05,10,14,231.60
2011,08,05,10,15,238.40
2011,08,05,10,16,244.30
2011,08,05,10,17,250.10
2011,08,05,10,18,250.90
2011,08,05,10,19,250.00
2011,08,05,10,20,250.30
2011,08,05,10,21,252.50
2011,08,05,10,22,254.10
2011,08,05,10,23,254.00
2011,08,05,10,24,256.00
2011,08,05,10,25,257.60
2011,08,05,10,26,259.30
2011,08,05,10,27,262.90
2011,08,05,10,28,264.80
2011,08,05,10,29,265.00
2011,08,05,10,30,268.60
2011,08,05,10,31,271.00
2011,08,05,10,32,271.90
2011,08,05,10,33,270.60
2011,08,05,10,34,268.20
2011,08,05,10,35,263.20
2011,08,05,10,36,256.90
2011,08,05,10,37,255.00
2011,08,05,10,38,256.00
2011,08,05,10,39,259.60
2011,08,05,10,40,260.80
2011,08,05,10,41,258.70
2011,08,05,10,42,257.30
2011,08,05,10,43,257.00
2011,08,05,10,44,257.00
2011,08,05,10,45,263.60
2011,08,05,10,46,276.20
2011,08,05,10,47,293.40
2011,08,05,10,48,307.80
2011,08,05,10,49,319.30
2011,08,05,10,50,334.80
2011,08,05,10,51,350.70
2011,08,05,10,52,365.30
2011,08,05,10,53,375.20
2011,08,05,10,54,375.30
2011,08,05,10,55,368.70
2011,08,05,10,56,366.00
2011,08,05,10,57,363.00
2011,08,05,10,58,358.00
2011,08,05,10,59,351.00
2011,08,05,11,00,345.50
2011,08,05,11,01,339.20
2011,08,05,11,02,338.00
2011,08,05,11,03,338.70
2011,08,05,11,04,343.70
2011,08,05,11,05,345.10
2011,08,05,11,06,341.70
2011,08,05,11,07,337.00
2011,08,05,11,08,332.20
2011,08,05,11,09,328.40
2011,08,05,11,10,327.00
2011,08,05,11,11,329.00
2011,08,05,11,12,334.30
2011,08,05,11,13,338.30
2011,08,05,11,14,336.40
2011,08,05,11,15,336.00
2011,08,05,11,16,338.10
2011,08,05,11,17,343.70
2011,08,05,11,18,350.40
2011,08,05,11,19,352.80
2011,08,05,11,20,351.40
2011,08,05,11,21,350.00
2011,08,05,11,22,349.10
2011,08,05,11,23,348.00
2011,08,05,11,24,347.00
2011,08,05,11,25,346.00
2011,08,05,11,26,346.00
2011,08,05,11,27,346.00
2011,08,05,11,28,350.60
2011,08,05,11,29,358.00
2011,08,05,11,30,366.20
2011,08,05,11,31,374.00
2011,08,05,11,32,381.70
2011,08,05,11,33,389.10
2011,08,05,11,34,397.60
2011,08,05,11,35,405.00
2011,08,05,11,36,414.60
2011,08,05,11,37,429.30
2011,08,05,11,38,447.60
2011,08,05,11,39,465.70
2011,08,05,11,40,486.00
2011,08,05,11,41,509.30
2011,08,05,11,42,547.00
2011,08,05,11,43,587.20
2011,08,05,11,44,596.00
2011,08,05,11,45,724.20
2011,08,05,11,46,737.00
2011,08,05,11,47,737.00
2011,08,05,11,48,697.50
2011,08,05,11,49,520.00
2011,08,05,11,50,546.60
2011,08,05,11,51,624.30
2011,08,05,11,52,674.00
2011,08,05,11,53,710.00
2011,08,05,11,54,710.00
2011,08,05,11,55,710.00
2011,08,05,11,56,710.00
2011,08,05,11,57,573.60
2011,08,05,11,58,519.00
2011,08,05,11,59,519.00
2011,08,05,12,00,656.80
2011,08,05,12,01,582.10
2011,08,05,12,02,578.00
2011,08,05,12,03,578.00
2011,08,05,12,04,578.00
2011,08,05,12,05,542.60
2011,08,05,12,06,451.30
2011,08,05,12,07,444.00
2011,08,05,12,08,441.00
2011,08,05,12,09,743.20
2011,08,05,12,10,965.30
2011,08,05,12,11,935.70
2011,08,05,12,12,926.40
2011,08,05,12,13,928.90
2011,08,05,12,14,958.30
2011,08,05,12,15,963.00
2011,08,05,12,16,407.50
2011,08,05,12,17,361.80
2011,08,05,12,18,450.00
2011,08,05,12,19,424.50
2011,08,05,12,20,439.00
2011,08,05,12,21,439.00
2011,08,05,12,22,439.00
2011,08,05,12,23,444.20
2011,08,05,12,24,462.50
2011,08,05,12,25,500.20
2011,08,05,12,26,546.90
2011,08,05,12,27,515.90
2011,08,05,12,28,500.00
2011,08,05,12,29,479.80
2011,08,05,12,30,467.00
2011,08,05,12,31,457.50
2011,08,05,12,32,416.80
2011,08,05,12,33,404.70
2011,08,05,12,34,397.40
2011,08,05,12,35,403.90
2011,08,05,12,36,423.30
2011,08,05,12,37,449.10
2011,08,05,12,38,468.00
2011,08,05,12,39,562.80
2011,08,05,12,40,619.90
2011,08,05,12,41,569.30
2011,08,05,12,42,557.90
2011,08,05,12,43,545.10
2011,08,05,12,44,532.40
2011,08,05,12,45,505.70
2011,08,05,12,46,499.80
2011,08,05,12,47,514.10
2011,08,05,12,48,528.70
2011,08,05,12,49,497.50
2011,08,05,12,50,507.60
2011,08,05,12,51,553.20
2011,08,05,12,52,595.50
2011,08,05,12,53,589.60
2011,08,05,12,54,609.90
2011,08,05,12,55,637.00
2011,08,05,12,56,605.00
2011,08,05,12,57,580.00
2011,08,05,12,58,564.90
2011,08,05,12,59,533.80
2011,08,05,13,00,586.00
2011,08,05,13,01,550.10
2011,08,05,13,02,548.00
2011,08,05,13,03,569.10
2011,08,05,13,04,648.50
2011,08,05,13,05,615.00
2011,08,05,13,06,615.00
2011,08,05,13,07,615.00
2011,08,05,13,08,615.00
2011,08,05,13,09,840.80
2011,08,05,13,10,1046.00
2011,08,05,13,11,1046.00
2011,08,05,13,12,1046.00
2011,08,05,13,13,1019.00
2011,08,05,13,14,947.60
2011,08,05,13,15,952.30
2011,08,05,13,16,939.00
2011,08,05,13,17,963.00
2011,08,05,13,18,929.60
2011,08,05,13,19,729.00
2011,08,05,13,20,797.60
2011,08,05,13,21,969.00
2011,08,05,13,22,969.00
2011,08,05,13,23,969.00
2011,08,05,13,24,969.00
2011,08,05,13,25,969.00
2011,08,05,13,26,930.50
2011,08,05,13,27,906.70
2011,08,05,13,28,899.10
2011,08,05,13,29,886.10
2011,08,05,13,30,885.80
2011,08,05,13,31,904.30
2011,08,05,13,32,911.00
2011,08,05,13,33,931.00
2011,08,05,13,34,940.20
2011,08,05,13,35,935.30
2011,08,05,13,36,910.70
2011,08,05,13,37,934.30
2011,08,05,13,38,912.70
2011,08,05,13,39,887.00
2011,08,05,13,40,874.00
2011,08,05,13,41,872.00
2011,08,05,13,42,870.60
2011,08,05,13,43,868.50
2011,08,05,13,44,867.10
2011,08,05,13,45,867.90
2011,08,05,13,46,867.10
2011,08,05,13,47,869.50
2011,08,05,13,48,863.70
2011,08,05,13,49,853.90
2011,08,05,13,50,843.40
2011,08,05,13,51,834.30
2011,08,05,13,52,833.00
2011,08,05,13,53,833.00
2011,08,05,13,54,832.00
2011,08,05,13,55,826.90
2011,08,05,13,56,824.00
2011,08,05,13,57,820.40
2011,08,05,13,58,820.50
2011,08,05,13,59,822.70
2011,08,05,14,00,827.50
2011,08,05,14,01,831.70
2011,08,05,14,02,809.30
2011,08,05,14,03,811.70
2011,08,05,14,04,810.00
2011,08,05,14,05,809.70
2011,08,05,14,06,808.30
2011,08,05,14,07,807.00
2011,08,05,14,08,807.00
2011,08,05,14,09,804.90
2011,08,05,14,10,803.00
2011,08,05,14,11,802.30
2011,08,05,14,12,802.00
2011,08,05,14,13,800.50
2011,08,05,14,14,800.00
2011,08,05,14,15,798.10
2011,08,05,14,16,795.10
2011,08,05,14,17,795.00
2011,08,05,14,18,795.00
2011,08,05,14,19,794.50
2011,08,05,14,20,793.00
2011,08,05,14,21,791.80
2011,08,05,14,22,789.00
2011,08,05,14,23,789.00
2011,08,05,14,24,788.50
2011,08,05,14,25,784.50
2011,08,05,14,26,783.30
2011,08,05,14,27,782.60
2011,08,05,14,28,782.00
2011,08,05,14,29,777.80
2011,08,05,14,30,777.00
2011,08,05,14,31,777.00
2011,08,05,14,32,777.00
2011,08,05,14,33,777.00
2011,08,05,14,34,776.10
2011,08,05,14,35,773.00
2011,08,05,14,36,772.70
2011,08,05,14,37,771.10
2011,08,05,14,38,770.00
2011,08,05,14,39,767.40
2011,08,05,14,40,763.80
2011,08,05,14,41,761.70
2011,08,05,14,42,759.60
2011,08,05,14,43,759.00
2011,08,05,14,44,758.10
2011,08,05,14,45,758.00
2011,08,05,14,46,758.00
2011,08,05,14,47,758.00
2011,08,05,14,48,757.70
2011,08,05,14,49,756.00
2011,08,05,14,50,754.90
2011,08,05,14,51,752.00
2011,08,05,14,52,751.60
2011,08,05,14,53,751.00
2011,08,05,14,54,749.90
2011,08,05,14,55,747.80
2011,08,05,14,56,747.00
2011,08,05,14,57,745.60
2011,08,05,14,58,744.20
2011,08,05,14,59,742.30
2011,08,05,15,00,740.20
2011,08,05,15,01,739.90
2011,08,05,15,02,737.10
2011,08,05,15,03,737.90
2011,08,05,15,04,736.50
2011,08,05,15,05,735.00
2011,08,05,15,06,732.70
2011,08,05,15,07,730.00
2011,08,05,15,08,731.10
2011,08,05,15,09,727.40
2011,08,05,15,10,723.60
2011,08,05,15,11,722.00
2011,08,05,15,12,722.00
2011,08,05,15,13,722.00
2011,08,05,15,14,719.40
2011,08,05,15,15,719.00
2011,08,05,15,16,720.80
2011,08,05,15,17,717.00
2011,08,05,15,18,716.70
2011,08,05,15,19,714.80
2011,08,05,15,20,713.40
2011,08,05,15,21,712.00
2011,08,05,15,22,711.20
2011,08,05,15,23,709.00
2011,08,05,15,24,707.50
2011,08,05,15,25,705.80
2011,08,05,15,26,703.70
2011,08,05,15,27,703.00
2011,08,05,15,28,700.70
2011,08,05,15,29,698.30
2011,08,05,15,30,696.20
2011,08,05,15,31,695.90
2011,08,05,15,32,693.90
2011,08,05,15,33,692.70
2011,08,05,15,34,691.00
2011,08,05,15,35,691.00
2011,08,05,15,36,690.30
2011,08,05,15,37,688.20
2011,08,05,15,38,686.50
2011,08,05,15,39,685.00
2011,08,05,15,40,682.80
2011,08,05,15,41,680.70
2011,08,05,15,42,679.30
2011,08,05,15,43,677.50
2011,08,05,15,44,675.30
2011,08,05,15,45,675.00
2011,08,05,15,46,674.90
2011,08,05,15,47,673.00
2011,08,05,15,48,672.70
2011,08,05,15,49,670.80
2011,08,05,15,50,669.40
2011,08,05,15,51,667.40
2011,08,05,15,52,666.00
2011,08,05,15,53,661.70
2011,08,05,15,54,652.80
2011,08,05,15,55,643.70
2011,08,05,15,56,630.70
2011,08,05,15,57,629.60
2011,08,05,15,58,634.10
2011,08,05,15,59,637.60
2011,08,05,16,00,644.30
2011,08,05,16,01,646.50
2011,08,05,16,02,637.80
2011,08,05,16,03,636.30
2011,08,05,16,04,635.10
2011,08,05,16,05,622.30
2011,08,05,16,06,609.70
2011,08,05,16,07,604.20
2011,08,05,16,08,606.00
2011,08,05,16,09,609.70
2011,08,05,16,10,618.30
2011,08,05,16,11,626.00
2011,08,05,16,12,625.10
2011,08,05,16,13,613.20
2011,08,05,16,14,608.30
2011,08,05,16,15,614.30
2011,08,05,16,16,605.50
2011,08,05,16,17,605.50
2011,08,05,16,18,609.60
2011,08,05,16,19,607.50
2011,08,05,16,20,605.70
2011,08,05,16,21,604.30
2011,08,05,16,22,603.00
2011,08,05,16,23,603.00
2011,08,05,16,24,603.00
2011,08,05,16,25,601.80
2011,08,05,16,26,599.00
2011,08,05,16,27,595.10
2011,08,05,16,28,590.10
2011,08,05,16,29,587.30
2011,08,05,16,30,584.30
2011,08,05,16,31,579.90
2011,08,05,16,32,576.80
2011,08,05,16,33,574.40
2011,08,05,16,34,570.80
2011,08,05,16,35,569.40
2011,08,05,16,36,566.70
2011,08,05,16,37,562.00
2011,08,05,16,38,559.00
2011,08,05,16,39,558.00
2011,08,05,16,40,555.20
2011,08,05,16,41,551.30
2011,08,05,16,42,548.60
2011,08,05,16,43,547.20
2011,08,05,16,44,545.30
2011,08,05,16,45,541.40
2011,08,05,16,46,539.70
2011,08,05,16,47,533.10
2011,08,05,16,48,533.50
2011,08,05,16,49,530.50
2011,08,05,16,50,528.40
2011,08,05,16,51,526.00
2011,08,05,16,52,523.20
2011,08,05,16,53,521.00
2011,08,05,16,54,519.50
2011,08,05,16,55,516.50
2011,08,05,16,56,513.00
2011,08,05,16,57,510.60
2011,08,05,16,58,508.50
2011,08,05,16,59,506.30
2011,08,05,17,00,503.30
2011,08,05,17,01,502.80
2011,08,05,17,02,498.70
2011,08,05,17,03,496.00
2011,08,05,17,04,495.10
2011,08,05,17,05,491.40
2011,08,05,17,06,489.60
2011,08,05,17,07,487.30
2011,08,05,17,08,484.00
2011,08,05,17,09,481.40
2011,08,05,17,10,480.00
2011,08,05,17,11,477.30
2011,08,05,17,12,475.30
2011,08,05,17,13,471.90
2011,08,05,17,14,471.00
2011,08,05,17,15,468.30